Orbital elements of CZ-4B DEB
| Launched | 9 May 1999 |
| Flight ended | – |
| Launch site | Taiyuan Space Center, PRC |
| Owner | People's Republic of China |
| NORAD ID | 25733 |
| Date fetched |
Epoch osculation |
Inc. [°] |
Ecc. | RA asc node [hr] |
Arg Peri. [°] |
Mean anom [°] |
Mean motion [rev/day] |
Abs. mag |
| Date fetched |
Epoch osculation |
Inc. [°] |
Ecc. | RA asc node [hr] |
Arg Peri. [°] |
Mean anom [°] |
Mean motion [rev/day] |
Abs. mag |
| 2026 May 03 17:57 | 2026 Apr 30 14:41:28 | 98.6849 | 0.00132 | 11.0039 | 319.6986 | 40.3209 | 14.18902 | 5.243 |
| 2026 May 02 17:57 | 2026 Apr 30 14:41:28 | 98.6849 | 0.00132 | 11.0039 | 319.6986 | 40.3209 | 14.18902 | 5.243 |
| 2026 May 01 17:56 | 2026 Apr 30 14:41:28 | 98.6849 | 0.00132 | 11.0039 | 319.6986 | 40.3209 | 14.18902 | 5.243 |
| 2026 Apr 30 17:56 | 2026 Apr 30 14:41:28 | 98.6849 | 0.00132 | 11.0039 | 319.6986 | 40.3209 | 14.18902 | 5.243 |
| 2026 Apr 29 17:57 | 2026 Apr 24 02:59:24 | 98.6858 | 0.00135 | 10.5800 | 339.6769 | 40.3209 | 14.18902 | 5.243 |
| 2026 Apr 28 17:56 | 2026 Apr 24 02:59:24 | 98.6858 | 0.00135 | 10.5800 | 339.6769 | 40.3209 | 14.18902 | 5.243 |
| 2026 Apr 27 17:58 | 2026 Apr 24 02:59:24 | 98.6858 | 0.00135 | 10.5800 | 339.6769 | 40.3209 | 14.18902 | 5.243 |
| 2026 Apr 26 17:58 | 2026 Apr 24 02:59:24 | 98.6858 | 0.00135 | 10.5800 | 339.6769 | 40.3209 | 14.18902 | 5.243 |
| 2026 Apr 25 17:58 | 2026 Apr 24 02:59:24 | 98.6858 | 0.00135 | 10.5800 | 339.6769 | 40.3209 | 14.18902 | 5.243 |
| 2026 Apr 24 17:59 | 2026 Apr 24 02:59:24 | 98.6858 | 0.00135 | 10.5800 | 339.6769 | 40.3209 | 14.18902 | 5.243 |
| 2026 Apr 23 17:57 | 2026 Apr 19 09:35:55 | 98.6868 | 0.00138 | 10.2714 | 353.8848 | 40.3209 | 14.18902 | 5.243 |
| 2026 Apr 22 17:57 | 2026 Apr 19 09:35:55 | 98.6868 | 0.00138 | 10.2714 | 353.8848 | 40.3209 | 14.18902 | 5.243 |
| 2026 Apr 21 17:57 | 2026 Apr 19 09:35:55 | 98.6868 | 0.00138 | 10.2714 | 353.8848 | 40.3209 | 14.18902 | 5.243 |
| 2026 Apr 20 17:57 | 2026 Apr 19 09:35:55 | 98.6868 | 0.00138 | 10.2714 | 353.8848 | 40.3209 | 14.18902 | 5.243 |
| 2026 Apr 19 17:58 | 2026 Apr 19 09:35:55 | 98.6868 | 0.00138 | 10.2714 | 353.8848 | 40.3209 | 14.18902 | 5.243 |
| 2026 Apr 18 17:56 | 2026 Apr 13 01:16:53 | 98.6876 | 0.00142 | 9.8567 | 12.3807 | 40.3209 | 14.18902 | 5.243 |
| 2026 Apr 16 17:57 | 2026 Apr 13 01:16:53 | 98.6876 | 0.00142 | 9.8567 | 12.3807 | 40.3209 | 14.18902 | 5.243 |
| 2026 Apr 14 17:57 | 2026 Apr 13 01:16:53 | 98.6876 | 0.00142 | 9.8567 | 12.3807 | 40.3209 | 14.18902 | 5.243 |
| 2026 Apr 13 17:57 | 2026 Apr 13 01:16:53 | 98.6876 | 0.00142 | 9.8567 | 12.3807 | 40.3209 | 14.18902 | 5.243 |
| 2026 Apr 12 17:57 | 2026 Apr 08 14:39:33 | 98.6883 | 0.00145 | 9.5663 | 25.1688 | 40.3209 | 14.18902 | 5.243 |
| 2026 Apr 11 17:57 | 2026 Apr 08 14:39:33 | 98.6883 | 0.00145 | 9.5663 | 25.1688 | 40.3209 | 14.18902 | 5.243 |
| 2026 Apr 10 17:58 | 2026 Apr 08 14:39:33 | 98.6883 | 0.00145 | 9.5663 | 25.1688 | 40.3209 | 14.18902 | 5.243 |
| 2026 Apr 09 18:01 | 2026 Apr 08 14:39:33 | 98.6883 | 0.00145 | 9.5663 | 25.1688 | 40.3209 | 14.18902 | 5.243 |
| 2026 Apr 08 17:57 | 2026 Apr 08 14:39:33 | 98.6883 | 0.00145 | 9.5663 | 25.1688 | 40.3209 | 14.18902 | 5.243 |
| 2026 Apr 07 17:57 | 2026 Apr 02 02:57:22 | 98.6894 | 0.00149 | 9.1424 | 43.2536 | 40.3209 | 14.18902 | 5.243 |
| 2026 Apr 06 17:57 | 2026 Apr 02 02:57:22 | 98.6894 | 0.00149 | 9.1424 | 43.2536 | 40.3209 | 14.18902 | 5.243 |